Regional Weather Roundup
Issued by NWS

Home | Current Version | Previous Version | Graphics & Text | Print | Product List | Glossary On
Versions: 1 2 3 4 5 6 7 8 9 10 11 12 13 14 15 16 17 18 19 20 21 22 23 24 25 26 27 28 29
000
ASUS45 KSLC 240410
RWRUT

UTAH REGIONAL WEATHER ROUNDUP
NATIONAL WEATHER SERVICE SALT LAKE CITY UT
1000 PM MDT THU OCT 23 2014

UTZ001>011-023>025-240500-

NORTHERN UTAH

CITY           SKY/WX    TMP DP  RH WIND       PRES   REMARKS
BRIGHAM CITY   CLOUDY    55  36  48 NW8       30.06S
HILL AFB       MOCLDY    58  37  45 E5        30.07R
LOGAN          CLEAR     47  38  71 N3        30.07S
OGDEN          MOCLDY    55  38  52 CALM      30.05S
PROVO AIRPORT  CLOUDY    55  34  44 SE5       30.10S
SALT LAKE CITY MOCLDY    57  39  51 CALM      30.03F
VERNAL         MOCLDY    47  36  65 W5        30.19S
WENDOVER       CLOUDY    54  34  47 CALM      30.07R
HEBER CITY     CLOUDY    46  32  57 CALM      30.14S
WEST JORDAN    CLEAR     64  39  39 S14       30.06S

$$

UTZ012>022-026-027-240500-

SOUTHERN/CENTRAL UTAH

CITY           SKY/WX    TMP DP  RH WIND       PRES   REMARKS
BLANDING       PTCLDY    50  31  48 N7        30.34S
BRYCE CANYON   MOCLDY    36  28  73 SW5       30.35S WCI  32
CEDAR CITY     MOCLDY    49  29  46 NE6       30.20R
DELTA          MOCLDY    62  27  26 S14       30.12R
HANKSVILLE       N/A     55  32  41 N7        30.17S
MILFORD        CLOUDY    62  30  29 S10       30.16R
MOAB/CYNLANDS  CLEAR     56  34  43 W3        30.15S
PRICE          PTCLDY    52  34  50 E6        30.23S
ST GEORGE      CLOUDY    66  30  26 SE3       30.10R

$$

REGIONAL REPORTS     COLORADO/ARIZONA

CITY           SKY/WX    TMP DP  RH WIND       PRES   REMARKS
CRAIG, CO      PTCLDY    42  34  73 SE5       30.23R
GRAND JUNCTION PTCLDY    52  37  56 E6        30.20S
RIFLE          PTCLDY    46  39  76 S3        30.25R
MONTROSE       PTCLDY    50  37  61 SE8       30.28R
CORTEZ         CLEAR     44  32  62 E5        30.30R
PAGE, AZ       PTCLDY    63  33  32 SE3       30.16S
GRAND CANYON   PTCLDY    40  27  59 CALM      30.32R
KINGMAN        CLEAR     60  40  47 S10       30.12R
FLAGSTAFF      PTCLDY    43  33  68 CALM      30.36R

$$

REGIONAL REPORTS    NEVADA/IDAHO/WYOMING

CITY           SKY/WX    TMP DP  RH WIND       PRES   REMARKS
LAS VEGAS, NV  PTCLDY    74  37  26 SW9       29.98R
ELY            CLOUDY    55  26  32 S16       30.17S
ELKO           PTCLDY    48  23  37 CALM      30.07R
POCATELLO, ID  CLEAR     44  33  65 S7        30.12R
BURLEY         MOCLDY    47  38  71 SW6       30.11R
EVANSTON, WY   PTCLDY    51  25  36 SW12      30.19S
ROCK SPRINGS   PTCLDY    49  25  39 S7        30.18F
KEMMERER       MOCLDY    46  23  39 CALM      30.20S

$$



USA.gov is the U.S. government's official web portal to all federal, state and local government web resources and services.